Marrakech, Morocco

12:23 PM WET on June 24, 2017 (GMT +0000)
Marrakech

Weather History for GMMX - February, 2015

Change the Weather History Date:

Saturday, February 14, 2015

  Actual Average Record
Temperature  
Mean Temperature 54 °F -  
Max Temperature 66 °F 70 °F 81 °F (2013)
Min Temperature 42 °F 47 °F 37 °F (2012)
Degree Days  
Heating Degree Days 11    
Growing Degree Days 4 (Base 50)    
Moisture  
Dew Point 44 °F    
Average Humidity 76    
Maximum Humidity 100    
Minimum Humidity 32    
Precipitation  
Precipitation 0.00 in 0.05 in - ()
Sea Level Pressure  
Sea Level Pressure 30.31 in    
Wind  
Wind Speed 5 mph ()    
Max Wind Speed 8 mph    
Max Gust Speed -    
Visibility 4.8 miles    
Events Fog    
Averages and records for this station are not official NWS values.
T = Trace of Precipitation, MM = Missing Value Source: Averaged Metar Reports

Daily Weather History Graph

Daily Weather History Graph

Search for Another Location

Airport or City:

Trip Planner

Search our weather history database for the weather conditions in past years. The results will help you decide how hot, cold, wet, or windy it might be!

Date:

Astronomy

Feb. 14, 2015 Rise Set
Actual Time 7:15 AM WET 6:17 PM WET
Civil Twilight 6:50 AM WET 6:42 PM WET
Nautical Twilight 6:21 AM WET 7:11 PM WET
Astronomical Twilight 5:53 AM WET 7:39 PM WET
Moon 2:57 AM WET (2/14) 1:46 PM WET (2/14)
Length of Visible Light 11h 52m
Length of Day
11h 02m
Waning Crescent, 26% of the Moon is Illuminated
Feb 14
Waning Crescent
Feb 18
New
Feb 25
First Quarter
Mar 5
Full
Mar 13
Last Quarter

Hourly Weather History & Observations

Time (WET) Temp. Windchill Dew Point Humidity Pressure Visibility Wind Dir Wind Speed Gust Speed Precip Events Conditions
12:00 AM 48 °F - 46 °F 92% 30.35 in 6 mi East 5.8 mph - -   Partly Cloudy
12:00 AM 48.2 °F - 46.4 °F 93% 30.33 in 6.2 mi East 5.8 mph - N/A   Scattered Clouds
12:30 AM 48.2 °F - 46.4 °F 93% 30.33 in 6.2 mi East 3.5 mph - N/A   Unknown
1:00 AM 48.2 °F - 46.4 °F 93% 30.30 in 6.2 mi East 3.5 mph - N/A   Unknown
1:30 AM 46.4 °F 43.5 °F 44.6 °F 93% 30.30 in - ENE 5.8 mph - N/A   Clear
2:00 AM 46.4 °F - 46.4 °F 100% 30.30 in - East 2.3 mph - N/A   Clear
2:30 AM 44.6 °F 43.1 °F 44.6 °F 100% 30.30 in 6.2 mi East 3.5 mph - N/A   Unknown
3:00 AM 45 °F - 44 °F 93% 30.34 in 6 mi East 4.6 mph - -  
3:00 AM 44.6 °F 41.4 °F 44.6 °F 100% 30.30 in 6.2 mi East 5.8 mph - N/A   Unknown
3:30 AM 44.6 °F 41.4 °F 44.6 °F 100% 30.30 in 6.2 mi ESE 5.8 mph - N/A   Unknown
4:00 AM 42.8 °F 40.1 °F 42.8 °F 100% 30.30 in 6.2 mi East 4.6 mph - N/A   Unknown
4:30 AM 44.6 °F 43.1 °F 44.6 °F 100% 30.30 in 6.2 mi East 3.5 mph - N/A   Unknown
5:00 AM 44.6 °F 42.2 °F 44.6 °F 100% 30.30 in - ESE 4.6 mph - N/A   Clear
5:30 AM 42.8 °F 40.1 °F 42.8 °F 100% 30.30 in 5.6 mi East 4.6 mph - N/A   Unknown
6:00 AM 43 °F - 43 °F 100% 30.36 in 4 mi ENE 4.6 mph - -  
6:00 AM 42.8 °F 40.1 °F 42.8 °F 100% 30.30 in 4.3 mi ENE 4.6 mph - N/A   Unknown
6:30 AM 42.8 °F 38.6 °F 42.8 °F 100% 30.30 in 5.6 mi ESE 6.9 mph - N/A   Unknown
7:00 AM 42.8 °F 40.1 °F 42.8 °F 100% 30.30 in 5.0 mi NE 4.6 mph - N/A   Unknown
7:30 AM 42.8 °F 39.3 °F 42.8 °F 100% 30.33 in 4.3 mi East 5.8 mph - N/A   Unknown
7:38 AM 42.8 °F 39.3 °F 42.8 °F 100% 30.33 in 2.5 mi East 5.8 mph - N/A   Mist
7:46 AM 42.8 °F 39.3 °F 42.8 °F 100% 30.33 in 0.7 mi East 5.8 mph - N/A Fog Fog
7:51 AM 42.8 °F 38.6 °F 42.8 °F 100% 30.33 in 0.5 mi East 6.9 mph - N/A Fog Fog
8:00 AM 42.8 °F 38.6 °F 42.8 °F 100% 30.33 in 0.5 mi East 6.9 mph - N/A Fog Fog
8:04 AM 42.8 °F 38.6 °F 42.8 °F 100% 30.33 in 0.9 mi East 6.9 mph - N/A   Scattered Clouds
8:14 AM 42.8 °F 38.6 °F 42.8 °F 100% 30.33 in 3.1 mi East 6.9 mph - N/A   Scattered Clouds
8:30 AM 44.6 °F 41.4 °F 44.6 °F 100% 30.33 in 3.7 mi East 5.8 mph - N/A   Scattered Clouds
9:00 AM 47 °F - 45 °F 92% 30.39 in 6 mi East 5.8 mph - -  
9:00 AM 44.6 °F 41.4 °F 44.6 °F 100% 30.33 in 3.7 mi East 5.8 mph - N/A   Scattered Clouds
9:30 AM 50.0 °F - 46.4 °F 87% 30.36 in - East 3.5 mph - N/A   Clear
10:00 AM 53.6 °F - 46.4 °F 77% 30.36 in - East 3.5 mph - N/A   Clear
10:30 AM 55.4 °F - 46.4 °F 72% 30.36 in - East 3.5 mph - N/A   Clear
11:00 AM 57.2 °F - 46.4 °F 67% 30.36 in - Variable 3.5 mph - N/A   Clear
11:30 AM 59.0 °F - 46.4 °F 63% 30.36 in - ENE 5.8 mph - N/A   Clear
12:00 PM 60 °F - 45 °F 47% 30.32 in 6 mi East 5.8 mph - -  
12:00 PM 60.8 °F - 46.4 °F 59% 30.33 in - East 5.8 mph - N/A   Clear
12:30 PM 60.8 °F - 44.6 °F 55% 30.33 in - NE 5.8 mph - N/A   Clear
1:00 PM 62.6 °F - 44.6 °F 52% 30.30 in - NE 3.5 mph - N/A   Clear
1:30 PM 64.4 °F - 44.6 °F 49% 30.30 in - Variable 4.6 mph - N/A   Clear
2:00 PM 64.4 °F - 42.8 °F 45% 30.27 in - North 6.9 mph - N/A   Clear
2:30 PM 64.4 °F - 42.8 °F 45% 30.27 in - North 5.8 mph - N/A   Clear
3:00 PM 66 °F - 43 °F 32% 30.25 in 6 mi North 8.1 mph - -  
3:00 PM 66.2 °F - 42.8 °F 43% 30.27 in - NE 8.1 mph - N/A   Clear
3:30 PM 66.2 °F - 46.4 °F 49% 30.27 in - North 5.8 mph - N/A   Clear
4:00 PM 66.2 °F - 46.4 °F 49% 30.27 in - North 4.6 mph - N/A   Clear
4:30 PM 66.2 °F - 46.4 °F 49% 30.27 in 5.6 mi ENE 4.6 mph - N/A   Unknown
5:00 PM 66.2 °F - 46.4 °F 49% 30.27 in - North 3.5 mph - N/A   Clear
5:30 PM 64.4 °F - 44.6 °F 49% 30.27 in - NNE 4.6 mph - N/A   Clear
6:00 PM 63 °F - 44 °F 39% 30.24 in 6 mi NNE 4.6 mph - -  
6:00 PM 62.6 °F - 44.6 °F 52% 30.27 in - NNE 4.6 mph - N/A   Clear
6:30 PM 60.8 °F - 42.8 °F 52% 30.27 in - NNE 5.8 mph - N/A   Clear
7:00 PM 59.0 °F - 42.8 °F 55% 30.27 in - NNE 5.8 mph - N/A   Clear
7:30 PM 57.2 °F - 42.8 °F 59% 30.27 in - NNE 4.6 mph - N/A   Clear
8:00 PM 57.2 °F - 42.8 °F 59% 30.27 in - NE 4.6 mph - N/A   Clear
8:30 PM 55.4 °F - 41.0 °F 58% 30.30 in - NE 4.6 mph - N/A   Clear
9:00 PM 54 °F - 41 °F 50% 30.31 in 6 mi ENE 3.5 mph - -  
9:00 PM 53.6 °F - 41.0 °F 62% 30.30 in - ENE 3.5 mph - N/A   Clear
9:30 PM 53.6 °F - 41.0 °F 62% 30.30 in - East 4.6 mph - N/A   Clear
10:00 PM 51.8 °F - 39.2 °F 62% 30.30 in - East 4.6 mph - N/A   Clear
10:30 PM 51.8 °F - 39.2 °F 62% 30.30 in 6.2 mi East 4.6 mph - N/A   Unknown
11:00 PM 51.8 °F - 42.8 °F 71% 30.30 in - ESE 6.9 mph - N/A   Clear
11:30 PM 48.2 °F - 41.0 °F 76% 30.27 in - East 5.8 mph - N/A   Clear